Regional Weather Roundup
Issued by NWS State College, PA

Home | Current Version | Previous Version | Text Only | Print | Product List | Glossary Off
Versions: 1 2 3 4 5 6 7 8 9 10 11 12 13 14 15 16 17 18 19 20 21 22 23 24 25 26 27 28 29 30 31 32 33 34 35 36 37 38 39 40 41 42 43 44 45 46 47 48 49 50

000
ASUS41 KCTP 171703
RWRCTP

REGIONAL WEATHER ROUNDUP
NATIONAL WEATHER SERVICE STATE COLLEGE PA
100 PM EDT THU APR 17 2014

Note: "fair" indicates few or no clouds below 12,000 feet with no
significant weather and/or obstructions to visibility.

* = STATION THAT DOES NOT REPORT PRECIPITATION /E.G. RAIN...SNOW...ETC/
    THUNDER OR FOG.

PAZ002>004-007>009-013>016-020>023-029>032-171800-
WESTERN PENNSYLVANIA

CITY           SKY/WX    TMP DP  RH WIND       PRES   REMARKS
ERIE           SUNNY     55  23  28 S16G23    30.40F
MEADVILLE      SUNNY     53  23  31 S9G17     30.40F
FRANKLIN*      SUNNY     52  25  35 SE13      30.45F
NEW CASTLE     FAIR      55  23  29 SE10      30.43F
BEAVER COUNTY  SUNNY     55  25  30 S6G17     30.42F
BUTLER*        MOSUNNY   54  23  30 S8        30.46F
PITTSBURGH INT CLOUDY    56  23  27 S8        30.43F
PITTSBURGH     MOSUNNY   56  21  25 E6        30.43F
INDIANA*       MOSUNNY   52  21  30 S9        30.47F
LATROBE        PTSUNNY   54  25  32 E12G20    30.47F
WASHINGTON CO* SUNNY     57  25  28 SE9       30.44F
$$

PAZ004>006-010>012-017>019-024>028-033>037-041-042-045-046-049>053-171800-
CENTRAL PENNSYLVANIA

CITY           SKY/WX    TMP DP  RH WIND       PRES   REMARKS
BRADFORD       SUNNY     46  19  34 SE13G20   30.46F
DUBOIS         MOSUNNY   50  21  32 S10G17    30.47F
CLEARFIELD     MOSUNNY   48  21  34 S8G17     30.51F
JOHNSTOWN      MOSUNNY   45  22  40 SE14G20   30.47F
ALTOONA        MOSUNNY   48  27  44 S8        30.54F
STATE COLLEGE  MOSUNNY   46  19  34 SE10      30.56F
WILLIAMSPORT   MOSUNNY   50  22  33 SE12G23   30.60F
SELINSGROVE      N/A     50  25  37 S8        30.62F
FT INDIANTOWN  MOSUNNY   49  28  44 E8        30.63F
CAPITAL CITY   SUNNY     49  28  44 E12       30.63F
HARRISBURG     MOSUNNY   52  30  43 SE9       30.63F
YORK           SUNNY     50  27  40 SE9       30.62F
$$

PAZ038>040-043-044-047-048-054-055-060>062-067>071-171800-
EASTERN PENNSYLVANIA

CITY           SKY/WX    TMP DP  RH WIND       PRES   REMARKS
SCRANTON       SUNNY     49  18  29 S12G21    30.60F
MOUNT POCONO   SUNNY     43  19  38 S12       30.59F
ALLENTOWN      SUNNY     50  21  32 SE12G20   30.65F
QUAKERTOWN*    SUNNY     48  23  37 E8G17     30.66F
READING        MOSUNNY   50  28  42 VRB6      30.64F
LANCASTER      PTSUNNY   47  29  49 SE9       30.64F
COATESVILLE    MOSUNNY   48  27  43 SE8       30.64F
POTTSTOWN      SUNNY     49  28  44 SE8G20    30.67F
BLUE BELL      SUNNY     52  27  37 E12       30.65F
DOYLESTOWN     SUNNY     46  25  43 VRB3      30.66F
WILLOW GROVE   NOT AVBL
NORTH PHILA    MOSUNNY   50  26  39 SE10      30.69F
PHILADELPHIA   MOSUNNY   52  26  36 E9G17     30.68F
$$



USA.gov is the U.S. government's official web portal to all federal, state and local government web resources and services.